星链-33651 (STARLINK-33651)

导读

STARLINK-33651是美国SpaceX公司星链(Starlink)项目的一颗低地球轨道通信卫星,于2025年4月14日由猎鹰9号火箭从美国佛罗里达州卡纳维拉尔角空军基地发射,隶属星链Group 6-73批次任务,一同入轨的共27颗星链卫星。作为第二代星链V2 Mini卫星,它支持手机直连功能,配备激光星间链路,旨在为全球提供低延迟高速宽带互联网服务,助力星链完成全球覆盖阶段的星座扩张。

Basic Information
目录编号:
63588
目录名称:
STARLINK-33651
国际标识:
2025-076V
轨道中心:
EARTH
卫星名称:
星链-33651
卫星全名:
星链-33651 (STARLINK-33651)
卫星状态:
在轨 (已飞行426 天)
发射日期:
2025-04-14 UTC
国别 :
美国 (US)
星等 :
--
Orbit Information
数据来源 国际轨道数据 AOE轨道数据
星历时间 2026-06-12T23:40:13+0800
1天前
查看轨道信息
2026-06-12T01:00:00+0800
2天前
查看轨道信息
半长轴 6861.086km 6861.221km
偏心率 0.0001388 0.0001175
轨道倾角 42.997° 43.001°
近地点辐角 256.369° 251.413°
升交点赤经 145.404° 150.741°
平近点角 103.701° 307.907°
近地点 481.996km 482.277km
远地点 483.902km 483.891km
周期 94.265分钟 94.267分钟
每日圈数 15.276135 15.275686
Detailed Information
固有亮度:
5
最大亮度:
2.5
卫星平台:
Starlink V1.0
覆盖范围:
全球
运营商:
太空探索技术公司
运营商所在国:
美国
制造商(研发单位):
太空探索技术公司
制造商所在国:
美国
使用方式:
暂无
Satellite Introduction
Starlink 计划是 SpaceX 推出的全球卫星互联网项目,通过发射低轨道卫星,为全球尤其是偏远地区提供高速、低延迟的互联网服务。自 2019 年起,Starlink 已部署数千颗卫星,旨在缩小全球数字鸿沟,推动互联网普及。该项目还为军事、航空等行业提供通信支持,带来广泛经济效益。
2D Orbit Map
3D Orbit Map
Orbit Altitude Analysis Chart
Orbit Inclination Analysis Chart
Orbit Comprehensive Analysis Chart
View Comprehensive Chart